sat.trackr.live / text

‹ back to catalog

STARLINK-34821

NORAD 65199 · 2025-176B

PAYLOAD ACTIVE UNKNOWN

§ Identity

Operator
Country
US
Launch date
2025-08-14
Launch site
AFETR
Launch vehicle
Mass (kg)
RCS (m²)

Purposes: comms

External: N2YO · Heavens-Above · Gunter

§ Orbital elements

Epoch: 2026-05-24T11:01:20.275680Z

Period
93.85 min
Inclination
53.1586°
Eccentricity
0.0001272
Mean motion
15.34385657 rev/d
Perigee alt
461.9 km
Apogee alt
463.6 km
Semi-major
6,840.9 km
B*
6.7108e-4
RAAN
159.9038°
Arg perigee
87.4384°
Mean anomaly
272.6764°
Rev number
4,466

§ Raw data

STARLINK-348211 65199U 25176B   26144.45926245  .00022355  00000+0  67108-3 0  99962 65199  53.1586 159.9038 0001272  87.4384 272.6764 15.34385657 44662

JSON: /api/v1/satellites/65199 · /tle

For live sub-satellite position, see the globe view (requires WebGL).

§ Visibility from observer

Set your observer location to see the next 7 days of passes ≥ 10°. The values pass through the URL so the page stays shareable.

No JS? Fill the form by hand. The geolocation button needs JavaScript.